Regional Weather Roundup
Issued by NWS

Home | Current Version | Previous Version | Graphics & Text | Print | Product List | Glossary On
Versions: 1 2 3 4 5 6 7 8 9 10 11 12 13 14 15 16 17 18 19 20 21 22 23 24 25 26 27 28 29 30 31 32 33 34 35 36 37 38 39 40 41 42 43 44 45 46 47 48 49 50
000
ASUS43 KDMX 200806
RWRIA

WEATHER ROUNDUP FOR IOWA
NATIONAL WEATHER SERVICE DES MOINES IA
300 AM CDT FRI OCT 20 2017

NOTE: "FAIR" INDICATES FEW OR NO CLOUDS BELOW 12,000 FEET WITH NO
SIGNIFICANT WEATHER AND/OR OBSTRUCTIONS TO VISIBILITY.

* - THESE STATIONS ARE NOT NWS STATIONS...THUS NOT UNDER NWS
QUALITY CONTROL.  THEY ALSO DO NOT REPORT WEATHER SUCH
AS PRECIPITATION OR FOG.

IAZ001>003-012>014-020>022-031>034-043>046-200900-
   NORTHWEST IOWA

CITY           SKY/WX    TMP DP  RH WIND       PRES   REMARKS
CARROLL *        N/A     75  70  83 SW16      29.98S
CHEROKEE *       N/A     57  51  80 S10       29.94S
DENISON *        N/A     59  50  72 S12G17    29.99S
LE MARS *      MOCLDY    57  50  77 MISG      29.91S
ORANGE CITY *    N/A     57  52  82 S8        29.91F
SHELDON *        N/A     57  50  77 S8        29.90S
SIOUX CITY       N/A     52  49  89 SE10      29.92S
SPENCER          N/A     51  48  89 SE6       29.93F
STORM LAKE *     N/A     55  50  82 S13       29.95F
$$

IAZ055>058-069>071-079>083-090>094-200900-
   SOUTHWEST IOWA

CITY           SKY/WX    TMP DP  RH WIND       PRES   REMARKS
ATLANTIC *       N/A     59  52  77 S8        30.01S
AUDUBON *        N/A     57  52  82 S8        30.02R
CLARINDA *       N/A     55  52  88 S8        30.06S
COUNCIL BLFS *   N/A     63  54  72 S14G20    29.99S
CRESTON *        N/A     55  52  88 S9        30.06S
HARLAN  *        N/A     55  52  88 S8        30.03S
LAMONI           N/A     56  51  84 MISG      30.07R
RED OAK *        N/A     57  52  82 S7        30.02S
SHENANDOAH *     N/A     57  52  82 S5G13     30.02F
$$

IAZ047>049-059>061-072>074-084-200900-
   CENTRAL IOWA

CITY           SKY/WX    TMP DP  RH WIND       PRES   REMARKS
AMES             N/A     59  53  80 SW7       30.01S
ANKENY *         N/A     59  52  77 S7        30.04S
BOONE *          N/A     59  52  77 S9G17     30.01R
CHARITON *       N/A     57  52  82 S8        30.06R
DES MOINES       N/A     59  52  77 S8        30.03R
KNOXVILLE *      N/A     59  50  72 S9        30.04S
MARSHALLTOWN     N/A     60  52  74 S15       30.02S
NEWTON *         N/A     55  50  82 S8        30.04S
PELLA *          N/A     58  51  75 S6        30.06S
PERRY *          N/A     55  52  92 S6        30.01S
$$

IAZ004>006-015-016-023>025-035-036-200900-
   NORTH CENTRAL IOWA

CITY           SKY/WX    TMP DP  RH WIND       PRES   REMARKS
ALGONA *         N/A     55  52  88 S10       29.96S
CLARION *        N/A     55  54  94 S10       29.99R
ESTHERVILLE      N/A     51  50  96 S10       29.93S
FORT DODGE *     N/A     57  51  80 S12       29.99R
MASON CITY       N/A     45  44  97 S7        30.00S
FOREST CITY *    N/A     50  48  93 S6        29.98S
WEBSTER CITY *   N/A     61  52  72 S13       29.98S
IOWA FALLS *     N/A     57  52  82 S9        30.02S
$$

IAZ007>011-017>019-026>030-037>042-050>054-066-200900-
   NORTHEAST IOWA

CITY           SKY/WX    TMP DP  RH WIND       PRES   REMARKS
CEDAR RAPIDS     N/A     52  49  89 S3        30.06S
CHARLES CITY *   N/A     54  52  94 S7        30.02R
CLINTON *        N/A     54  50  86 SE6       30.10S
DECORAH *        N/A     57  50  77 S8        30.02S
DUBUQUE          N/A     53  49  86 S7        30.08S
MONTICELLO *     N/A     54  50  87 SE6       30.07S
OELWEIN *        N/A     52  50  93 S9        30.05S
WATERLOO         N/A     53  49  86 S8        30.02S
$$

IAZ064-065-067-068-078-200900-
   EAST CENTRAL IOWA

CITY           SKY/WX    TMP DP  RH WIND       PRES   REMARKS
DAVENPORT        N/A     51  46  83 S3        30.12R
IOWA CITY        N/A     50  47  89 CALM      30.09S
MUSCATINE *      N/A     48  46  93 CALM      30.09S
QUAD CITIES      N/A     57  48  72 CALM      30.09S
$$

IAZ062-063-075>077-085>089-095>099-200900-
   SOUTHEAST IOWA

CITY           SKY/WX    TMP DP  RH WIND       PRES   REMARKS
BURLINGTON       N/A     58  51  78 S8        30.10S
FAIRFIELD *      N/A     57  48  72 S8        30.08S
FORT MADISON *   N/A     57  52  82 S8        30.11S
KEOKUK *         N/A     59  52  77 S8        30.09F
OSKALOOSA *      N/A     52  48  87 S6        30.07S
OTTUMWA          N/A     56  50  80 S9        30.06S
WASHINGTON *     N/A     54  50  87 S7        30.09S
$$

ABBREVIATIONS USED IN REMARKS
   TC - TEMPERATURES IN CELSIUS
  WCI - WIND CHILL INDEX
   HX - HEAT INDEX
  VSB - VISIBILITY
$$




USA.gov is the U.S. government's official web portal to all federal, state and local government web resources and services.